Change the Weather History Date:

Friday, January 25, 2013

  Actual Average Record
Temperature  
Mean Temperature 20 °F 35 °F  
Max Temperature 25 °F 44 °F 74 °F (1950)
Min Temperature 14 °F 26 °F 1 °F (1963)
Degree Days  
Heating Degree Days 45 30  
Month to date heating degree days 663 747  
Since 1 July heating degree days 2077 2329  
Cooling Degree Days 0 0  
Month to date cooling degree days 0 0  
Year to date cooling degree days 0 0  
Moisture  
Dew Point 12 °F    
Average Humidity 68    
Maximum Humidity 92    
Minimum Humidity 44    
Precipitation  
Precipitation 0.05 in 0.10 in 1.38 in (2010)
Month to date precipitation 2.30 2.37  
Year to date precipitation 2.30 2.37  
Sea Level Pressure  
Sea Level Pressure 30.26 in    
Wind  
Wind Speed 2 mph (SSW)    
Max Wind Speed 10 mph    
Max Gust Speed 14 mph    
Visibility 6 miles    
Events Snow    
T = Trace of Precipitation, MM = Missing Value Source: NWS Daily Summary

Daily Weather History Graph

Daily Weather History Graph

Search for Another Location

Airport or City:

Trip Planner

Search our weather history database for the weather conditions in past years. The results will help you decide how hot, cold, wet, or windy it might be!

Date:

Astronomy

Jan. 25, 2013 Rise Set
Actual Time 7:12 AM EST 5:15 PM EST
Civil Twilight 6:44 AM EST 5:44 PM EST
Nautical Twilight 6:11 AM EST 6:16 PM EST
Astronomical Twilight 5:40 AM EST 6:47 PM EST
Moon 4:10 PM EST (1/25) 5:50 AM EST (1/25)
Length of Visible Light 10h 59m
Length of Day
10h 02m
Waxing Gibbous, 98% of the Moon is Illuminated
Jan 25
Waxing Gibbous
Jan 26
Full
Feb 3
Last Quarter
Feb 10
New
Feb 17
First Quarter

Hourly Weather History & Observations

Time (EST) Temp. Windchill Dew Point Humidity Pressure Visibility Wind Dir Wind Speed Gust Speed Precip Events Conditions
12:54 AM 16.0 °F 10.4 °F 3.0 °F 57% 30.50 in 10.0 mi West 3.5 mph - N/A   Clear
1:54 AM 18.0 °F 12.7 °F 3.0 °F 52% 30.50 in 10.0 mi NNW 3.5 mph - N/A   Clear
2:54 AM 17.1 °F - 3.0 °F 54% 30.50 in 10.0 mi Calm Calm - N/A   Clear
3:54 AM 16.0 °F - 3.9 °F 59% 30.48 in 10.0 mi Calm Calm - N/A   Clear
4:54 AM 14.0 °F - 3.9 °F 64% 30.48 in 10.0 mi Calm Calm - N/A   Clear
5:54 AM 16.0 °F - 5.0 °F 62% 30.47 in 10.0 mi Calm Calm - N/A   Clear
6:54 AM 18.0 °F 12.7 °F 3.0 °F 52% 30.48 in 10.0 mi WNW 3.5 mph - N/A   Clear
7:54 AM 18.0 °F - 3.0 °F 52% 30.48 in 10.0 mi Calm Calm - N/A   Clear
8:54 AM 19.9 °F 14.9 °F 3.0 °F 48% 30.47 in 10.0 mi North 3.5 mph - N/A   Clear
9:54 AM 21.0 °F 16.2 °F 3.9 °F 48% 30.46 in 10.0 mi West 3.5 mph - N/A   Clear
10:54 AM 21.9 °F - 3.9 °F 46% 30.42 in 10.0 mi Calm Calm - N/A   Partly Cloudy
11:54 AM 23.0 °F - 3.0 °F 42% 30.37 in 10.0 mi Calm Calm - N/A   Overcast
12:54 PM 24.1 °F 18.2 °F 7.0 °F 48% 30.35 in 10.0 mi West 4.6 mph - N/A   Overcast
1:54 PM 24.1 °F 17.0 °F 7.0 °F 48% 30.31 in 10.0 mi SW 5.8 mph - N/A   Overcast
2:54 PM 25.0 °F 19.3 °F 9.0 °F 51% 30.25 in 10.0 mi South 4.6 mph - N/A   Overcast
3:54 PM 24.1 °F 15.2 °F 12.0 °F 60% 30.22 in 5.0 mi South 8.1 mph - 0.00 in Snow Light Snow
4:11 PM 24.8 °F 16.9 °F 12.2 °F 59% 30.20 in 2.5 mi SSE 6.9 mph - 0.00 in Snow Light Snow
4:21 PM 24.8 °F 17.9 °F 14.0 °F 64% 30.20 in 1.2 mi SSE 5.8 mph - 0.00 in Snow Light Snow
4:30 PM 23.0 °F - 15.8 °F 74% 30.20 in 1.2 mi Calm Calm - 0.00 in Snow Light Snow
4:38 PM 23.0 °F 18.4 °F 15.8 °F 74% 30.20 in 2.5 mi South 3.5 mph - 0.00 in Snow Light Snow
4:45 PM 23.0 °F 18.4 °F 15.8 °F 74% 30.19 in 5.0 mi South 3.5 mph - 0.00 in Snow Light Snow
4:54 PM 23.0 °F - 16.0 °F 74% 30.20 in 3.0 mi Calm Calm - 0.00 in Snow Light Snow
5:01 PM 23.0 °F - 15.8 °F 74% 30.20 in 1.8 mi Calm Calm - 0.00 in Snow Light Snow
5:09 PM 23.0 °F - 15.8 °F 74% 30.19 in 3.0 mi Calm Calm - 0.00 in Snow Light Snow
5:17 PM 23.0 °F 18.4 °F 17.6 °F 80% 30.19 in 1.8 mi South 3.5 mph - 0.00 in Snow Light Snow
5:48 PM 21.2 °F 16.4 °F 17.6 °F 86% 30.18 in 1.0 mi South 3.5 mph - 0.00 in Snow Light Snow
5:54 PM 21.9 °F - 19.0 °F 89% 30.17 in 0.8 mi Calm Calm - 0.00 in Snow Light Snow
6:13 PM 21.2 °F - 19.4 °F 93% 30.16 in 0.8 mi Calm Calm - 0.00 in Snow Light Snow
6:30 PM 21.2 °F - 19.4 °F 93% 30.15 in 0.8 mi Calm Calm - 0.00 in Snow Light Snow
6:54 PM 21.9 °F - 19.0 °F 89% 30.15 in 1.0 mi Calm Calm - 0.00 in Snow Light Snow
6:57 PM 21.2 °F - 19.4 °F 93% 30.14 in 1.2 mi Calm Calm - 0.00 in Snow Light Snow
7:18 PM 21.2 °F - 19.4 °F 93% 30.14 in 2.0 mi Calm Calm - 0.00 in Snow Light Snow
7:39 PM 21.2 °F - 19.4 °F 93% 30.13 in 4.0 mi Calm Calm - 0.00 in Snow Light Snow
7:54 PM 21.9 °F - 19.0 °F 89% 30.12 in 6.0 mi Calm Calm - 0.00 in   Overcast
8:27 PM 21.2 °F - 19.4 °F 93% 30.12 in 5.0 mi Calm Calm - 0.00 in   Overcast
8:54 PM 21.9 °F - 19.0 °F 89% 30.11 in 8.0 mi Calm Calm - 0.00 in   Overcast
9:54 PM 21.9 °F - 19.0 °F 89% 30.09 in 7.0 mi Calm Calm - N/A   Overcast
10:54 PM 21.9 °F - 18.0 °F 85% 30.09 in 7.0 mi Calm Calm - N/A   Overcast
11:29 PM 19.4 °F - 15.8 °F 86% 30.08 in 6.0 mi Calm Calm - N/A   Scattered Clouds
11:54 PM 19.0 °F - 16.0 °F 88% 30.09 in 5.0 mi Calm Calm - N/A   Clear